Погода в Александровке 2-ой

Россия / Тамбовская область     51°48′10″N   41°47′08″E
темп.,
°C
ветер,
м/с
пор.,
м/с
влажн.,
%
обл.,
%
осадки,
мм/ч
давл.,
гПа
погр.,
м
18 октября, пн
пн1800:00+8сз237594 0.0 101542
03:00+6сз338844 0.0 101553
06:00+5сз34905 0.0 101462
09:00+7зсз357284 0.0 1015268
12:00+10зсз565585 0.0 10141114
15:00+10зсз574597 0.0 10131539
18:00+8з3654100 0.0 1014124
21:00+8з3759100 0.0 1014263
19 октября, вт
вт1900:00+7зсз3674100 0.0 1014203
03:00+6зсз2580100 0.0 1014182
06:00+5сз3583100 0.0 1014238
09:00+6ссз3571100 0.0 1015441
12:00+8сз4552100 0.0 10151273
15:00+8сз564692 0.1 10141549
18:00+6ссз485796 0.1 1016346
21:00+4сз486770 0.1 1017497
20 октября, ср
ср2000:00+2сз4790100 0.0 1017516
03:00+2сз5984100 0.0 1018602
06:00+2сз588799 0.2 1020660
09:00+2ссз588380 0.3 1022678
12:00+4ссз5661100 0.1 10231264
15:00+5сз565699 0.1 10241211
18:00+2зсз3466100 0.0 102574
21:00+1юз227120 0.0 102527
21 октября, чт
чт2100:000юз3671100 0.0 1024110
03:00+1ююз41064100 0.0 1023237
06:00+3ююз61351100 0.0 1020405
09:00+3ююз71670100 0.8 1018527
12:00+8юз91463100 0.1 1016723
15:00+12зюз8145890 0.1 1014943
18:00+12юз71561100 0.0 1013672
21:00+11юз8176498 0.0 1013590
22 октября, пт
пт2200:00+10юз81765100 0.0 1012613
03:00+10юз81765100 0.0 1010618
06:00+9юз71665100 0.0 1010569
09:00+10юз81572100 0.0 1010567
12:00+13зюз9126692 0.0 1010829
15:00+15зюз71160100 0.0 10111035
18:00+12зюз5117181 0.0 1012293
21:00+10зюз4108170 0.0 1014201